Starlink 32264

operational
NORAD ID: 61642 Int'l Des: 2024-191 Owner: SPXS Country: US Constellation: starlink
LEOCIRCULAR

关于 Starlink 32264

正在加载描述...

实时位置

正在加载3D地球...

即将过境

高度历史

Altitude vs Time

uPlot chart will show altitude changes over time

两行轨道根数

1 61642U 24191X 25259.50046792 -.00003490 00000-0 -11736-3 0 9991
2 61642 43.0045 61.9346 0001035 276.4733 83.6001 15.27574578 50854
Epoch: Sep 16, 2025 • Age: 17 hours

当前状态

高度 484.4 km
速度 7.62 km/s
星下点 -8.92°S, 176.86°W
发射日期 Oct 23, 2024
运行时间 0.8 years
类型 internet

技术详情

分类 Payload
质量 730.00 kg
干质量 700.00 kg
总质量 730.00 kg
长度 0.30 m
直径 4.10 m
跨度 29.00 m
形状 Box + pan
制造商 SPXS
平台类型 Starlink V2M
阶段状态 In Orbit
所有者/国家 SPXS/US

大型星座

Loading constellations...